Regional Weather Roundup
Issued by NWS Kansas City/Pleasant Hill, MO

Home | Current Version | Previous Version | Text Only | Print | Product List | Glossary On
Versions: 1 2 3 4 5 6 7 8 9 10 11 12 13 14 15 16 17 18 19 20 21 22 23 24 25 26 27 28 29 30 31 32 33 34 35 36 37 38 39 40 41 42 43 44 45 46 47 48 49 50
538
ASUS43 KEAX 081910
RWREAX

WEATHER ROUNDUP FOR EASTERN KANSAS AND NORTHWEST MISSOURI
NATIONAL WEATHER SERVICE KANSAS CITY/PLEASANT HILL MO
100 PM CST THU DEC 08 2016

KSZ040-057-103>105-MOZ028-029-037-043-082000-
...KANSAS CITY METROPOLITAN AREA...

CITY           SKY/WX    TMP DP  RH WIND       PRES   REMARKS
K.C. INTL      MOSUNNY   23   9  55 NW13      30.60F WCI  11
K.C. DOWNTOWN    N/A     25  11  55 W13       30.62F WCI  14
LEES SUMMIT    SUNNY     24  12  60 NW14G21   30.59F WCI  12
OLATHE - IXD   SUNNY     23  11  60 W14       30.61F WCI  11
OLATHE - OJC   SUNNY     23  10  57 NW12      30.60F WCI  12
LAWRENCE       SUNNY     25  13  60 W10       30.63F WCI  15

$$

MOZ001>008-011>017-020>025-030>033-038>040-044>046-053-054-082000-
...NORTHERN AND CENTRAL MISSOURI...

CITY           SKY/WX    TMP DP  RH WIND       PRES   REMARKS
ST. JOSEPH     SUNNY     24   9  52 NW15      30.61F WCI  11
MOSBY          CLEAR     27  10  50 NW10      30.61S WCI  17
WARRENSBURG    SUNNY     27  14  59 W9        30.59F WCI  17
WHITEMAN AFB   MOSUNNY   25  13  58 W12G21    30.57F WCI  15
CLINTON        SUNNY     27  14  59 W12       30.59F WCI  16
SEDALIA        MOSUNNY   24  12  60 W14       30.57F WCI  12
WARSAW         NOT AVBL
CHILLICOTHE      N/A     24   9  52 NW14G22   30.58F WCI  12
KIRKSVILLE     SUNNY     25  10  53 NW14      30.51S WCI  13

$$

MOZ041-047>049-056>058-063>065-088>090-097-082000-
...EASTERN AND SOUTHERN MISSOURI...

CITY           SKY/WX    TMP DP  RH WIND       PRES   REMARKS
ST. LOUIS INTL MOSUNNY   30  11  45 W23       30.49F WCI  17
SPIRIT OF STL  MOSUNNY   30  13  49 W12       30.50F WCI  20
COLUMBIA       SUNNY     25  10  53 NW16G24   30.53F WCI  12
JEFFERSON CITY SUNNY     26  10  50 NW14      30.55F WCI  14
ROLLA          SUNNY     27  13  55 W16G22    30.49F WCI  15
OSAGE BEACH    SUNNY     30  15  53 NW8       30.55F WCI  22
SPRINGFIELD    SUNNY     28  13  53 NW8G22    30.55F WCI  20
BRANSON        PTSUNNY   28   9  43 NW8G18    30.55F WCI  20
JOPLIN         SUNNY     28  13  53 NW13      30.63F WCI  17
WEST PLAINS    SUNNY     31  11  43 NW12G21   30.51F WCI  22

$$

IAZ060-094-KSZ022-034>040-054-083-096-NEZ052-066-093-082000-
...KANSAS...SOUTHEAST NEBRASKA AND IOWA...

CITY           SKY/WX    TMP DP  RH WIND       PRES   REMARKS
TOPEKA         SUNNY     25  11  55 NW12      30.64F WCI  14
MANHATTAN      SUNNY     26  10  50 W8        30.67F WCI  18
EMPORIA        SUNNY     23  12  62 NW15      30.64F WCI  10
CHANUTE        SUNNY     27  15  61 NW13      30.64F WCI  16
WICHITA        MOSUNNY   28   7  41 N13       30.65F WCI  17
OMAHA          MOSUNNY   23   8  52 NW21      30.60F WCI   8
LINCOLN        SUNNY     23   7  50 NW15      30.63F WCI  10
FALLS CITY     SUNNY     24   9  52 NW17G24   30.61F WCI  11
LAMONI         SUNNY     22   9  57 NW21G26   30.52F WCI   6
DES MOINES     PTSUNNY   22   9  57 NW21G29   30.50F WCI   6

$$





USA.gov is the U.S. government's official web portal to all federal, state and local government web resources and services.